STARLINK-32878, 62892

Orbit data source: Space-Track

STARLINK-32878, 62892 is a payload satellite owned by SpaceX/Seattle (US) in LEO that was launched on Tue, 04 Feb 2025 UTC via an FALCON 9 launch vehicle from the Air Force Eastern Test Range (AFETR). Payload-class satellites include a variety of spacecraft equipped with specific instruments for various scientific and technological missions. These include communications satellites like Starlink; space stations such as the ISS; scientific satellites like the Hubble; Earth observation satellites from companies like Planet Labs, Umbra, and HawkEye 360; GPS; miniature CubeSats for education and research; and military/defense satellites.

Loading next visibility...
Identifier
62892, 2025-024P
Orbit
LEO
Country
Flag of USUS
Related business
Manufacturer
SpaceX/Seattle
Mission
Operational Commercial Communications
Bus & Motor
STARLINK V2M, Unknown motor
Mass
730 kg wet, ~700 kg dry
Launch date (UTC)
2025-02-04 (1 year ago)
Launch vehicle
FALCON 9
Launch site
Air Force Eastern Test Range (AFETR)
Object type
Payload
Rocket body
Debris
Shape & HBR
Box + 2 Pan, 17.7 m
Radar Cross Section
33.884 m², Large (>1 m²)

Expand to show TLE details & history
Last TLE update: 13 hours ago

TLE from 13 hours ago
0 STARLINK-32878
1 62892U 25024P   26129.95157240  .00007177  00000-0  27008-3 0  9995
2 62892  43.0026 339.5223 0001126 264.1597  95.9126 15.27581553 71636
Epoch: 2026-05-09T22:50Z
TLE epoch observation values (Epoch: 2026-05-09T22:50:15.855Z)
Latitude
-0.00004°
Longitude
129.19456°
Altitude
482.9 km
Speed
7.626 km/s
True Right ascension
22h 38m 05s
True Declination
0° 00' 00"
Sunlit
Object was in daylight at epoch
Visualization orbit readout
Latitude
Unknown
Longitude
Unknown
Altitude
Unknown
Speed
Unknown
Apparent Right ascension
Unknown
Apparent Declination
Unknown
Sunlit
N/A
Visualization observer readout
Local Sidereal Time
19:37:09
Azimuth
Unknown
Elevation
Unknown
Doppler factor
Unknown
Orbital elements
Apogee altitude
485.762 km
Perigee altitude
484.216 km
Semi-major axis
6,863.126 km
Eccentricity
0.00011
Inclination
43.0026°
RAAN
339.5223°
Arg. of periapsis
264.1597°
True anomaly
95.92543°
Mean anomaly
95.9126°
Eccentric anomaly
95.91902°
Mean motion
3.81733 °/min
Orbital period
94.31 mins
BSTAR
0.00027008
Loading maneuver chart data...
Computing Atmospheric mass density...
Loading historical data...
Loading historical data...
Loading historical data...
Loading historical data...
Loading historical data...
Loading historical data...
Loading historical data...

Documentation

Showing up to 5 results
|